[[{"header":{"parameterUnit":"m.s-1","parameterCategory":1,"la1":30.2992,"la2":30.254,"lo1":-89.0895,"lo2":-89.0443,"dy":0.0025,"dx":0.0025,"nx":19,"ny":19,"refTime":"2026-05-17T21:00:00:Z","depth":0,"parameterNumber":2,"parameterNumberName":"U-component_of_WINDS"},"data":[0,0,0,-4.5228,-4.523,-4.5343,-4.5344,-4.5502,-4.5503,0,0,0,0,0,0,0,0,0,0,0,-4.5202,-4.5204,-4.5227,-4.523,-4.5343,-4.5344,-4.5502,-4.5503,0,0,0,0,0,0,0,0,0,0,0,-4.5202,-4.5203,-4.5205,-4.5231,-4.5343,-4.5344,-4.5501,-4.5411,0,0,0,0,0,0,0,0,0,0,-4.5299,-4.5284,-4.5203,-4.5205,-4.5232,-4.5343,-4.5344,-4.5407,-4.5417,-4.5457,0,-4.5494,0,-4.5501,-4.5515,-4.5515,0,0,0,-4.5224,-4.5275,-4.5298,-4.5205,-4.5233,-4.5343,-4.5291,-4.5412,-4.5424,-4.547,-4.5496,-4.5502,-4.5504,-4.5516,-4.5517,-4.5766,-4.5767,0,0,-4.5218,-4.5227,-4.529,-4.5306,-4.529,-4.5287,-4.5294,-4.5419,-4.5448,-4.5497,-4.5505,-4.5507,-4.5517,-4.5518,-4.5764,-4.5766,0,0,0,-4.5204,-4.5223,-4.5243,-4.53,-4.5319,-4.529,-4.5299,-4.5442,-4.5448,-4.5507,-4.5508,-4.5518,-4.552,-4.5763,-4.5765,-4.5843,0,0,0,-4.52,-4.5215,-4.524,-4.5247,-4.5317,-4.5382,-4.532,-4.5439,-4.5453,-4.5508,-4.5518,-4.5522,-4.5761,-4.5764,-4.5837,-4.5878,0,0,0,-4.5192,-4.5214,-4.5233,-4.5247,-4.5296,-4.538,-4.5393,-4.5442,-4.5455,-4.5516,-4.5522,-4.576,-4.5763,-4.5833,-4.587,-4.5944,0,0,0,-4.5186,-4.5302,-4.5234,-4.5365,-4.5295,-4.5428,-4.5392,-4.5491,-4.5553,-4.5519,-4.5761,-4.5765,-4.5831,-4.5865,-4.5939,-4.6007,-4.6036,0,0,-4.5338,-4.5321,-4.5397,-4.534,-4.5487,-4.541,-4.5569,-4.5618,-4.5616,-4.5716,-4.5722,-4.5839,-4.5869,-4.5943,-4.6204,-4.6228,0,0,0,-4.5448,-4.5502,-4.5539,-4.5598,-4.5639,-4.5675,-4.5699,-4.5717,-4.5801,-4.5669,-4.5888,-4.5905,-4.5948,-4.598,-4.6,-4.6035,-4.578,-4.578,-4.578,-4.5673,-4.5664,-4.5789,-4.5794,-4.5852,-4.5875,-4.5921,-4.5949,-4.5924,-4.5976,-4.6004,-4.6164,-4.6201,-4.6216,-4.6253,-4.6042,-4.6042,-4.6042,-4.6042,-4.5892,-4.5967,-4.5931,-4.6038,-4.6028,-4.6119,-4.6146,-4.6125,-4.6207,-4.6142,-4.6179,-4.6105,-4.6243,-4.6274,-4.6048,-4.6047,-4.6046,-4.6046,-4.6046,-4.6036,-4.607,-4.6091,-4.6174,-4.6241,-4.6242,-4.6323,-4.6312,-4.6302,-4.6339,-4.6367,-4.6366,-4.6361,-4.6354,-4.6355,-4.6355,-4.6356,-4.6356,-4.6356,-4.6177,-4.6197,-4.6266,-4.6318,-4.6354,-4.64,-4.6426,-4.6461,-4.6497,-4.6482,-4.6483,-4.6451,-4.6259,-4.6209,-4.6365,-4.6363,-4.6362,-4.6361,-4.6361,-4.6397,-4.6345,-4.6451,-4.6488,-4.6548,-4.6613,-4.6599,-4.6672,-4.67,-4.674,-4.6701,-4.6562,-4.6543,-4.6527,-4.6486,-4.6704,-4.6704,-4.6704,-4.6704,-4.6516,-4.6507,-4.6612,-4.667,-4.6727,-4.6724,-4.6844,-4.6865,-4.6879,-4.6895,-4.6863,-4.6808,-4.6793,-4.6784,-4.6762,-4.6723,-4.6996,-4.6997,-4.6997,-4.665,-4.6645,-4.6749,-4.6761,-4.6807,-4.6847,-4.6959,-4.7028,-4.7033,-4.7009,-4.6908,-4.6895,-4.6807,-4.6779,-4.6749,-4.6716,-4.6644,0,0]},{"header":{"parameterUnit":"m.s-1","parameterCategory":1,"la1":30.2992,"la2":30.254,"lo1":-89.0895,"lo2":-89.0443,"dy":0.0025,"dx":0.0025,"nx":19,"ny":19,"refTime":"2026-05-17T21:00:00:Z","depth":0,"parameterNumber":3,"parameterNumberName":"V-component_of_WINDS"},"data":[0,0,0,3.2254,3.2257,3.2397,3.2397,3.2565,3.2566,0,0,0,0,0,0,0,0,0,0,0,3.2206,3.2207,3.2254,3.2257,3.2397,3.2397,3.2565,3.2566,0,0,0,0,0,0,0,0,0,0,0,3.2206,3.2207,3.2208,3.2257,3.2397,3.2397,3.2564,3.2463,0,0,0,0,0,0,0,0,0,0,3.2328,3.2278,3.2206,3.2208,3.2258,3.2396,3.2398,3.2458,3.2469,3.2497,0,3.2521,0,3.2546,3.2577,3.2578,0,0,0,3.2261,3.2269,3.2313,3.2208,3.2259,3.2396,3.2335,3.2464,3.2477,3.2511,3.2523,3.253,3.2549,3.2578,3.2579,3.2728,3.2729,0,0,3.2253,3.2228,3.2304,3.2321,3.2299,3.233,3.2339,3.2472,3.2483,3.2524,3.2534,3.2552,3.2579,3.258,3.2728,3.2728,0,0,0,3.2228,3.2222,3.2263,3.2313,3.234,3.2334,3.2344,3.2477,3.2492,3.2536,3.2554,3.258,3.2582,3.2727,3.2728,3.2729,0,0,0,3.2224,3.2207,3.2259,3.2244,3.2337,3.241,3.2346,3.2483,3.2499,3.2553,3.258,3.2583,3.2727,3.2728,3.2728,3.2734,0,0,0,3.2199,3.2204,3.2223,3.2243,3.2302,3.2409,3.2432,3.2487,3.251,3.2578,3.2584,3.2727,3.2728,3.2727,3.2732,3.2767,0,0,0,3.2164,3.222,3.2222,3.2291,3.2301,3.2408,3.2431,3.2512,3.257,3.2581,3.2727,3.2728,3.2726,3.2731,3.2765,3.2792,3.2801,0,0,3.222,3.2225,3.2268,3.2274,3.2375,3.2389,3.2489,3.2566,3.2595,3.2682,3.2686,3.2728,3.2732,3.2767,3.2855,3.2861,0,0,0,3.2277,3.2307,3.2339,3.2395,3.2456,3.2509,3.2574,3.2603,3.2678,3.2635,3.275,3.2753,3.2775,3.2789,3.2794,3.2815,3.2733,3.2733,3.2733,3.2318,3.2354,3.2427,3.248,3.2533,3.2601,3.2647,3.2697,3.2717,3.2743,3.277,3.2819,3.2834,3.2839,3.286,3.2786,3.2786,3.2786,3.2786,3.2403,3.2452,3.2479,3.2559,3.2597,3.2665,3.2732,3.2744,3.2812,3.2802,3.2822,3.2809,3.2845,3.2865,3.2786,3.2786,3.2786,3.2786,3.2786,3.2435,3.2465,3.25,3.2585,3.2646,3.2697,3.2763,3.2794,3.2824,3.2844,3.2876,3.2876,3.2882,3.2857,3.2857,3.2858,3.2858,3.2858,3.2858,3.2454,3.2494,3.2546,3.2617,3.2657,3.2714,3.2783,3.2823,3.2876,3.2894,3.2894,3.2912,3.2841,3.2824,3.2861,3.286,3.286,3.286,3.2859,3.253,3.2518,3.2598,3.2639,3.2725,3.2785,3.2824,3.2904,3.2942,3.2973,3.2987,3.2929,3.2937,3.2933,3.2919,3.2978,3.2978,3.2978,3.2978,3.2558,3.2565,3.2655,3.2718,3.2784,3.2828,3.2918,3.2972,3.3026,3.3051,3.3047,3.303,3.3025,3.3036,3.303,3.3017,3.31,3.31,3.31,3.2607,3.2622,3.2693,3.2746,3.2817,3.2876,3.2962,3.3033,3.3092,3.3106,3.3073,3.3067,3.3041,3.303,3.3044,3.3033,3.301,0,0]}]]